GPS BIIF-7 (40105 NORAD) Tracking and Keplerian Element Data

This shows tracking and keplerian element data for the satellite.

Feedback or suggestion? Click here.




ElementValue
Catalog40105
NameGPS BIIF-7
Epoch Orbit7213
Epoch Day159.66165254
Epoch Year2024
RAAN117.9889
Inclination54.9274
Eccentricity0.0025273
Argument of Perigee115.3549
Mean Anonmoly244.8607
Mean Motion2.00565679
Decay Rate-9E-08
L11 40105U 14045A 24159.66165254 -.00000009 00000+0 00000+0 0 9998
L22 40105 54.9274 117.9889 0025273 115.3549 244.8607 2.00565679 72137



Live tracking and technical data element details for GPS BIIF-7 (NORAD 40105). GPS BIIF-7 can be tracked NOW for your location showing map with azimuth and elevation plus other details from your city location.







IsCatalogInMostPopularTable: catalog: 40105, numindb: 604
Update: records affected: 1



GetName: 40105 GPS BIIF-7

Hit Count: updated at: Sun, 23 Jun 2024 01:02:40 GMT